Home   Weather   Neumünster   Past weeks

Flag for Germany Past Weather in Neumünster, Schleswig-Holstein, Germany — Yesterday and Last 2 Weeks

Now
29 °F

Overcast.


Feels Like: 29 °F
Forecast: 29 / 36 °F
Wind: 2 mph from Southwest

Location: Itzehoe

Current Time: Jan 18, 2017 at 9:16:17 pm

Latest Report: Jan 18, 2017 at 8:00 pm


Visibility: 4 mi

Pressure: 30.69 "Hg

Humidity: 86%

Dew Point: 26 °F

Location of NeumünsterLocation

Past Weather in Neumünster — Graph

°F

Neumünster Temperature Yesterday

Maximum temperature yesterday: 35 °F (at 2:00 pm)
Minimum temperature yesterday: 18 °F (at 6:00 am)
Average temperature yesterday: 27 °F

High & Low Weather Summary for the Past Weeks

 TemperatureHumidityPressure
High46 °F (Jan 3, 9:00 pm)100% (Jan 7, 9:00 pm)30.79 "Hg (Jan 7, 9:00 pm)
Low13 °F (Jan 6, 9:00 am)54% (Jan 4, 9:00 pm)29.12 "Hg (Jan 13, 6:00 am)
Average32 °F85%30.07 "Hg
* Reported Jan 3 8:00 pm — Jan 18 8:00 pm, Neumünster, Weather by CustomWeather, © 2017

Note: Actual official high and low records may vary slightly from our data, if they occured in-between our weather recording intervals... More about our weather records

Advertising

Neumünster Weather History for the Previous 24 Hours

Scroll right to see more
 ConditionsComfort  
Time TempWeatherWind HumidityBarometerVisibility
8:00 pm
Wed, Jan 18
29 °FOvercast.2 mph86%30.69 "Hg4 mi
6:00 pm30 °FOvercast.2 mph83%30.69 "Hg4 mi
5:00 pm30 °FOvercast.2 mph82%30.70 "Hg5 mi
3:00 pm31 °FPartly sunny.2 mph81%30.70 "Hg5 mi
2:00 pm30 °FPartly sunny.3 mph82%30.70 "Hg5 mi
12:00 pm29 °FOvercast.2 mph85%30.73 "Hg4 mi
11:00 am29 °FOvercast.2 mph84%30.74 "Hg5 mi
9:00 am28 °FOvercast.2 mph88%30.71 "Hg4 mi
8:00 am28 °FOvercast.2 mph88%30.70 "Hg4 mi
6:00 am29 °FOvercast.2 mph87%30.69 "Hg4 mi
5:00 am28 °FOvercast.1 mph88%30.70 "Hg3 mi
3:00 am28 °FOvercast.2 mph89%30.71 "Hg4 mi
2:00 am28 °FOvercast.1 mph91%30.71 "Hg3 mi
12:00 am29 °FOvercast.1 mph92%30.70 "Hg3 mi
11:00 pm
Tue, Jan 17
28 °FOvercast.1 mph94%30.70 "Hg2 mi
9:00 pm31 °FOvercast.1 mph92%30.70 "Hg4 mi
Weather by CustomWeather, © 2017

See weather overviewHow to use our weather pages